User: anonymous   Login
Location: Unspecified
(0.0000°N, 0.0000°E)
Time: 01:12:21
(UTC+00:00)
Language:

SO-50 - Orbit

View from above orbital plane
View from above orbital plane
View from above satellite
View from above satellite

Ground track
Ground track

The orbit data is extracted from the following two-line orbital elements,

1 27607U 02058C   18015.91003091 -.00000021  00000-0  17550-4 0  9991
2 27607 064.5538 195.4716 0046691 006.5024 353.6674 14.75412065810368
Epoch (UTC): 15 January 2018 21:50:26
Eccentricity: 0.0046691
inclination: 64.5538°
perigee height: 611 km
apogee height: 676 km
right ascension of ascending node: 195.4716°
argument of perigee: 6.5024°
revolutions per day: 14.75412065
mean anomaly at epoch: 353.6674°
orbit number at epoch: 81036

The dashed part of the orbit path shows where the satellite is in the earth's shadow,  

DLR